SCP
0 0 0 0 0 0 0 0 0 0 0 0 0 0 0 0 0 0 0 0 0 0 0 0 0 0 0 0 0 0 0 0 0 0 0 0 0 0 0 0 0 1 1 0 0 -0 0 0 0 0 1 1 0 1
0 0 0 0 0 0 0 0 0 0 0 0 0 0 0 0 0 0 0 0 0 0 0 0 0 0 0 0 0 0 0 0 1 0 0 0 0 0 0 0 0 0 0 1 0 0 -0 -0 0 0 0 1 1 2
0 0 0 0 0 0 0 0 0 0 0 0 0 0 0 0 0 0 0 0 0 0 0 0 0 0 0 0 0 0 0 0 1 1 0 1 1 1 1 0 0 0 0 0 0 0 0 0 0 1 2 1 0 0
0 0 0 0 0 0 0 0 0 0 0 0 0 0 0 0 0 0 0 0 0 0 0 0 0 0 0 0 0 0 0 0 0 0 0 0 0 1 0 0 0 0 0 0 0 0 0 0 1 2 1 0 0 0
0 0 -0 0 0 0 0 0 0 0 0 0 0 0 0 0 0 0 0 0 0 0 0 0 0 0 0 0 0 0 0 0 0 0 0 0 0 0 0 0 0 0 0 0 0 0 0 0 1 1 0 0 0 0
-0 -0 0 0 0 0 0 0 0 0 0 0 0 0 0 0 0 0 0 0 0 0 0 0 0 0 0 0 0 0 0 0 0 0 0 0 0 0 0 0 0 0 0 0 0 0 1 0 0 0 0 0 0 0
-0 0 0 0 0 0 0 0 0 0 0 0 0 0 0 0 0 0 0 0 0 0 0 0 0 0 -0 0 0 0 0 0 0 0 0 0 0 0 0 0 0 0 0 0 0 0 0 0 0 0 0 0 0 0
0 0 0 0 0 0 0 0 0 0 0 0 0 0 0 0 0 0 0 0 0 0 0 0 0 0 0 0 0 0 0 0 0 0 0 0 0 0 0 0 0 0 0 0 0 0 0 0 0 0 0 0 0 0
0 0 0 0 0 0 0 0 0 0 0 0 0 0 0 0 0 0 0 0 0 0 0 0 0 0 0 0 0 0 0 0 0 0 0 0 0 0 0 0 0 0 0 0 0 0 0 0 0 0 0 0 0 0
0 0 0 0 0 0 0 0 0 0 0 0 0 0 0 0 0 0 0 0 0 0 0 0 0 0 0 0 0 0 0 0 0 0 0 0 0 0 0 0 0 0 0 0 0 0 0 0 0 0 0 0 0 0
0 0 0 0 0 0 0 0 0 0 0 0 0 0 0 0 0 0 0 0 0 0 0 0 0 0 0 0 0 0 0 0 0 0 0 0 0 0 0 0 0 0 0 0 0 0 0 0 0 0 0 0 0 0
0 0 0 0 0 0 0 0 0 0 0 0 0 0 0 0 0 0 0 0 0 0 0 0 0 0 0 0 0 0 0 0 0 0 0 0 0 0 0 0 0 0 0 0 0 0 0 0 0 0 0 1 1 1
0 0 0 0 0 0 0 0 0 0 0 0 0 0 0 0 0 0 0 0 0 0 0 0 0 0 0 0 0 0 0 0 0 0 0 0 0 0 0 0 0 0 0 0 0 0 0 0 0 1 1 1 1 0
0 0 0 0 0 0 0 0 0 0 0 0 0 0 0 0 0 0 0 0 0 0 0 0 0 0 0 0 0 0 0 0 0 0 0 1 1 1 1 1 1 0 0 0 0 0 0 0 1 1 1 1 1 1
0 0 0 0 0 0 0 0 0 0 0 0 0 0 0 0 0 0 0 0 0 0 0 0 0 0 0 0 0 0 0 0 0 0 0 1 1 1 1 1 0 0 0 0 0 1 0 1 1 1 1 1 1 1
0 0 0 0 0 0 0 0 0 0 0 0 0 0 0 0 0 0 0 0 0 0 0 0 0 0 0 0 0 0 0 0 0 0 0 1 0 0 0 0 0 0 0 1 1 1 1 1 1 1 1 2 1 1
0 0 0 0 0 0 0 0 0 0 0 0 0 0 0 0 0 0 0 0 0 0 0 0 0 0 0 0 0 0 0 0 0 0 0 0 0 0 0 0 0 0 0 0 0 0 0 0 1 1 1 1 1 1
0 0 0 -0 0 0 0 0 0 0 0 0 0 0 0 0 0 0 0 0 0 0 0 0 0 0 0 0 0 0 0 0 0 0 0 0 0 0 0 0 0 0 0 0 0 0 0 1 0 1 1 0 0 0
0 0 -0 -0 0 0 0 0 0 0 0 0 0 0 0 0 0 0 0 0 0 0 0 0 0 0 0 0 0 0 0 0 0 0 0 0 0 0 0 0 0 0 0 0 0 0 0 0 0 0 0 0 0 0
0 0 -0 -0 0 0 0 0 0 0 0 0 0 0 0 0 0 0 0 0 0 0 0 0 0 0 0 0 0 0 0 0 0 0 0 0 0 0 0 0 0 0 0 0 0 0 0 1 1 0 0 0 0 0
-0 0 -0 0 0 0 0 0 0 0 0 0 0 0 0 0 0 0 0 0 0 0 0 0 0 0 0 0 0 0 0 0 0 0 0 0 0 0 0 0 0 0 0 0 0 0 0 1 0 0 0 0 0 0
0 0 0 0 0 0 0 0 0 0 0 0 0 0 0 0 0 0 0 0 0 0 0 0 0 0 0 0 0 0 0 0 0 0 0 0 0 0 0 0 0 0 0 0 0 0 0 0 0 0 0 0 0 0
0 0 0 0 0 0 0 0 0 0 0 0 0 0 0 0 0 0 0 0 -0 0 0 0 0 0 0 0 0 0 0 0 0 0 0 0 0 0 0 0 0 0 0 0 0 0 0 0 0 0 0 0 0 0
0 -0 -0 0 0 0 0 0 0 0 0 0 0 0 0 0 0 0 0 0 0 0 0 -0 -0 -0 0 0 -0 -0 -0 -0 -0 0 0 0 0 0 0 0 0 0 0 0 0 0 0 0 0 0 0 0 0 0
0 0 0 0 0 0 0 0 0 0 0 0 0 0 0 -0 0 0 0 0 0 0 0 0 0 0 -0 -0 0 0 -0 0 0 0 0 0 0 0 0 0 0 0 0 0 0 0 0 0 0 0 0 0 0 0
0 0 0 0 0 0 0 0 -0 0 0 0 -0 -0 -0 -0 -0 -0 -0 -0 -0 -0 0 0 0 0 0 0 0 0 0 0 0 0 0 0 0 0 0 0 0 0 0 0 0 0 0 0 0 0 0 0 0 0
0 0 0 0 0 -0 0 0 0 0 -0 -0 -0 -0 -0 0 0 0 -0 -0 -0 -0 0 0 0 0 0 0 0 0 0 0 0 0 0 0 0 0 0 0 0 0 0 0 0 0 0 0 0 0 0 0 0 0
0 0 0 0 0 0 0 0 0 0 0 0 0 0 0 0 0 0 0 0 0 0 0 -0 -0 -0 0 0 0 0 0 0 0 0 0 0 0 0 0 0 0 0 0 0 0 0 0 0 0 0 0 0 0 0
0 0 0 0 0 0 0 0 0 0 0 0 0 0 0 0 0 -0 0 -0 0 0 0 0 0 0 0 0 -0 -0 -0 -0 0 0 0 0 0 -0 -0 0 0 -0 -0 0 -0 0 -0 -0 0 0 0 0 0 0
0 0 0 0 0 0 0 0 0 0 0 0 -0 0 0 0 0 -0 -0 -0 -0 -0 -0 -0 -0 -0 -0 0 0 -0 0 -0 -0 -0 0 0 0 -0 0 0 0 0 0 0 0 -0 -0 -0 -0 0 0 0 0 0
0 0 0 0 0 0 0 0 0 0 -0 -0 -0 -0 -0 -0 -0 -0 -0 -0 -0 0 0 0 0 0 0 0 0 0 0 0 0 0 0 0 0 0 0 0 0 0 0 0 0 0 0 0 0 0 0 0 0 0
0 0 0 0 0 0 0 0 0 0 0 0 0 -0 -0 -0 -0 -0 0 0 -0 0 0 0 0 0 0 0 0 0 0 0 0 0 0 0 0 0 0 0 0 0 0 0 0 0 0 0 0 0 0 0 0 0
0 0 0 0 0 0 0 0 0 0 0 0 0 0 0 0 0 0 0 -0 0 0 0 0 0 0 0 0 0 0 0 0 0 -0 0 0 0 0 0 0 0 0 0 0 0 0 0 0 0 0 0 0 0 0
Wind_Speed_500mb
59 60 60 68 79 79 74 76 68 60 54 48 43 39 36 32 31 32 14 22 22 28 42 26 18 17 24 15 17 14 6 10 13 19 23 24 25 28 28 28 25 18 14 9 17 19 22 29 36 17 12 18 25 24
57 60 63 63 74 72 80 75 66 58 51 47 43 39 35 32 31 30 10 15 18 24 29 18 25 23 15 11 16 11 8 10 17 9 18 21 23 21 24 25 22 23 9 11 14 22 24 18 24 18 21 15 23 30
58 59 64 62 75 73 84 74 63 56 50 46 41 38 34 32 31 35 18 4 10 22 39 44 41 29 30 30 12 8 6 13 4 10 14 9 13 14 19 15 24 13 45 18 12 20 13 23 24 5 14 11 19 26
54 59 65 61 71 67 84 68 60 53 48 44 39 35 33 31 31 36 21 6 8 14 14 16 21 25 16 23 26 26 17 16 16 17 20 12 16 22 21 24 25 10 23 37 17 15 5 63 30 23 16 21 25 28
48 60 63 69 74 65 75 64 57 51 46 40 35 32 30 30 30 31 25 10 11 9 13 11 8 20 21 19 24 25 22 19 21 19 17 16 31 26 30 28 25 36 20 19 14 24 21 19 7 14 15 27 33 40
46 53 68 66 79 77 69 60 55 49 42 36 31 29 27 27 26 21 10 13 10 9 11 7 4 16 20 19 20 23 23 20 20 17 24 33 43 27 14 24 36 47 51 49 35 31 31 14 19 27 35 39 35 38
42 63 88 85 78 69 63 56 50 44 38 33 29 26 25 27 31 15 1 17 19 14 7 10 11 23 22 21 22 23 24 26 23 31 40 40 39 35 21 26 40 59 56 56 53 52 44 40 40 40 40 45 50 41
75 67 57 70 63 61 57 51 44 38 32 28 25 23 23 25 18 13 9 2 15 9 9 7 8 12 23 23 23 26 26 26 18 27 23 26 39 40 20 31 50 52 49 53 54 52 55 57 54 52 52 49 57 37
65 67 80 67 61 55 50 44 37 33 29 27 27 27 28 20 10 13 10 7 24 8 8 10 13 10 13 24 27 22 18 13 29 23 35 21 20 16 19 48 60 57 54 50 49 49 46 46 48 48 46 47 39 36
87 85 68 59 52 47 41 37 34 33 32 36 42 8 13 13 12 17 3 8 9 11 11 12 26 13 8 20 18 10 16 13 13 20 30 22 25 45 48 58 54 51 50 43 43 41 44 46 48 46 44 42 36 36
68 63 56 48 43 38 36 36 37 38 45 24 11 7 15 22 21 7 10 13 16 10 15 23 31 13 10 8 7 15 8 8 16 21 22 18 20 34 61 63 54 52 49 47 49 51 52 53 48 46 40 36 28 18
56 51 47 43 39 37 37 39 43 44 17 10 19 23 24 7 11 10 10 9 10 10 15 21 21 23 6 5 8 9 6 6 10 13 10 27 22 31 27 14 5 16 12 18 22 25 28 29 30 26 7 9 13 14
47 44 40 37 35 34 37 48 41 27 26 23 10 12 10 6 4 11 14 10 8 6 14 13 11 9 7 3 10 7 7 9 20 10 21 15 5 6 6 6 5 12 12 9 19 23 23 22 15 13 11 10 13 13
46 42 37 33 29 29 35 46 34 43 22 11 9 5 7 10 11 11 16 12 18 15 16 19 17 13 14 11 11 9 9 9 9 13 18 17 30 27 26 24 19 20 21 23 22 25 23 27 19 16 10 12 11 8
45 40 35 31 28 28 33 47 42 17 1 5 7 6 11 3 11 19 20 20 12 9 12 6 9 8 12 6 7 8 7 9 9 9 7 25 29 31 27 25 23 21 24 23 23 24 26 23 18 16 11 11 7 5
36 28 30 27 28 30 33 31 16 4 1 3 5 5 7 7 14 4 5 18 5 6 3 7 6 7 12 7 10 11 8 7 14 24 25 24 23 23 23 24 28 29 29 29 25 24 26 25 19 14 16 0 1 4
27 14 21 24 24 27 28 18 9 4 3 5 10 8 3 4 9 12 12 12 9 8 9 9 8 13 7 10 24 9 18 8 29 36 32 24 25 21 22 25 26 27 29 30 25 22 22 25 25 22 7 4 5 10
21 18 16 15 18 14 7 5 4 5 8 10 8 13 9 4 4 5 4 7 11 10 16 12 12 14 13 9 16 4 18 19 21 24 24 30 25 24 20 21 24 27 34 33 30 29 22 21 23 11 8 27 18 17
14 16 17 17 20 15 4 3 2 5 10 3 9 5 7 9 10 12 14 14 13 11 7 9 9 13 18 33 34 45 38 26 35 40 31 27 29 31 29 28 31 33 34 39 39 37 28 17 16 10 10 10 6 9
23 24 20 23 15 5 2 4 2 3 7 9 5 9 10 13 15 17 19 21 25 23 18 9 22 33 30 30 36 38 42 42 38 34 42 36 32 39 35 30 37 37 41 46 37 40 30 25 12 6 3 2 1 1
15 11 21 16 7 6 1 2 2 1 6 8 9 7 14 14 19 25 27 27 31 37 36 40 41 42 42 41 40 43 44 47 42 40 46 46 41 41 37 39 35 39 43 45 43 40 35 21 10 6 9 13 13 16
13 14 11 12 7 6 3 2 6 9 7 11 16 16 16 18 21 23 21 31 34 37 40 43 46 47 42 38 41 35 44 45 51 51 52 51 48 49 41 34 30 34 38 34 30 34 18 27 22 12 6 12 15 15
18 17 8 9 6 6 4 4 4 6 6 9 10 8 8 7 11 12 6 20 34 25 32 32 34 37 32 34 35 33 38 46 49 49 54 49 47 36 29 16 17 21 25 24 27 30 17 15 16 24 24 29 18 23
20 7 6 6 0 5 5 4 4 5 8 6 5 8 10 5 11 6 12 11 33 40 27 24 34 28 30 32 32 33 37 39 39 32 24 16 19 19 29 30 29 23 23 23 24 20 18 13 17 18 26 37 34 29
4 6 2 4 4 3 3 4 5 3 6 7 8 10 8 11 6 5 9 16 33 31 34 31 25 26 29 34 29 25 25 22 28 24 24 21 14 14 10 9 8 9 8 12 9 5 11 21 31 31 34 47 39 32
3 3 1 9 5 3 5 7 8 9 10 5 5 9 8 6 4 8 8 23 23 34 37 35 29 25 18 20 25 30 33 25 17 12 8 3 10 6 14 20 22 22 15 14 14 18 20 18 19 19 21 15 17 18
4 5 5 6 8 6 7 7 13 9 5 6 9 11 7 6 6 6 14 23 26 23 23 20 18 19 21 23 20 15 12 8 12 29 30 23 21 19 21 24 22 17 10 11 13 14 15 19 23 24 25 25 22 19
3 5 4 7 7 5 4 6 3 3 5 8 10 6 4 3 3 7 3 12 19 35 38 35 25 22 24 27 23 21 22 22 19 17 17 20 17 18 20 18 16 22 24 21 18 15 8 9 14 13 14 13 13 13
6 6 5 6 6 6 9 7 4 5 6 3 4 2 2 1 6 7 11 15 22 21 18 18 24 29 33 32 25 27 25 25 30 31 27 22 20 12 26 28 28 22 21 17 15 12 12 13 12 17 18 16 13 10
7 12 7 7 7 8 9 17 8 7 6 10 5 6 5 6 7 5 11 12 16 15 12 14 16 14 14 6 12 12 16 13 12 15 16 17 17 9 7 6 7 9 9 10 13 19 19 15 15 11 8 6 5 5
6 9 8 12 11 14 19 19 13 9 7 8 17 6 6 7 8 5 4 8 10 12 14 16 17 18 16 16 14 13 14 15 18 16 16 12 12 10 9 8 6 5 4 4 5 6 7 8 7 7 8 8 7 7
7 12 20 6 8 13 23 22 18 15 22 16 16 13 11 9 5 10 9 8 8 9 12 13 13 15 15 13 13 14 12 12 13 10 9 10 9 10 11 8 8 7 7 6 7 7 7 7 6 6 6 8 7 7
7 23 21 17 14 15 16 4 7 2 8 16 14 4 3 8 10 6 6 11 13 11 9 10 8 9 11 12 12 8 7 18 20 32 23 12 8 12 12 8 8 7 8 7 8 8 8 8 7 8 7 7 7 7
Wind_Direction_500mb
222 223 224 220 226 229 224 207 209 214 218 224 221 218 219 216 218 212 211 237 222 259 273 304 298 304 323 300 269 11 233 197 261 234 247 247 255 264 269 255 268 182 149 179 240 313 245 350 346 2 328 323 325 336
217 215 217 219 217 229 215 199 204 207 213 216 213 211 213 211 209 204 225 261 235 247 267 308 288 263 275 303 328 300 337 308 6 281 238 261 263 268 263 271 234 246 281 169 152 217 201 190 203 252 242 350 332 334
212 209 216 214 223 220 207 195 198 203 208 209 209 207 206 207 203 196 211 207 261 264 282 261 256 277 246 243 258 283 32 358 50 352 320 301 287 309 289 289 283 321 17 298 290 307 297 252 301 103 63 22 340 327
211 208 213 210 214 220 203 187 195 197 200 203 205 203 202 202 201 194 189 282 236 286 272 247 190 219 231 228 234 242 261 299 310 304 292 284 292 305 292 303 301 264 94 238 280 313 7 288 51 46 21 350 332 318
214 205 213 211 207 220 180 184 189 190 193 197 199 199 197 196 198 197 196 238 237 258 320 321 232 233 211 218 223 231 243 261 274 280 258 261 275 288 288 292 285 298 299 316 315 306 314 309 70 24 327 302 306 294
208 212 195 192 207 202 174 180 181 183 186 189 191 192 193 189 185 168 216 225 220 239 289 255 193 185 204 215 220 223 228 236 236 254 255 260 275 299 272 267 278 283 286 301 324 330 331 323 295 302 301 308 314 317
205 178 181 187 171 164 169 172 176 177 178 179 180 181 182 179 169 210 298 183 206 166 242 259 235 191 203 208 220 222 221 230 236 251 241 259 268 269 264 258 275 284 293 306 313 320 316 304 299 295 296 298 295 288
188 176 177 157 154 162 164 168 169 170 170 168 166 165 166 168 187 206 230 165 164 173 233 265 256 185 185 208 223 210 219 217 230 240 253 247 246 245 255 261 267 269 277 284 290 291 291 292 292 290 293 293 288 288
166 166 142 150 158 160 162 163 164 163 158 152 145 138 130 142 176 186 259 197 171 193 276 226 249 215 172 228 223 177 215 238 237 235 236 248 243 237 243 241 251 262 266 274 276 282 281 282 285 285 284 285 299 315
133 132 143 151 155 156 158 159 157 154 147 141 134 129 154 160 148 130 103 157 192 214 239 259 254 279 208 214 212 204 199 229 253 222 235 233 245 257 261 264 266 271 276 278 281 286 286 286 289 294 292 297 302 292
131 137 144 149 152 154 154 154 153 148 143 140 175 99 130 149 140 197 181 204 189 211 212 232 257 294 207 285 267 211 256 229 243 240 244 238 239 240 243 245 254 255 260 266 268 272 272 270 270 273 277 275 284 326
135 140 143 145 146 148 151 153 148 138 170 146 102 116 132 181 203 197 188 219 202 220 164 210 211 228 347 15 274 292 235 237 259 288 250 227 245 268 288 275 321 321 289 280 281 280 280 280 276 273 287 359 337 316
128 130 132 134 138 144 149 149 143 137 146 129 134 152 183 159 132 208 191 186 204 185 141 179 183 207 202 281 271 285 261 258 295 275 254 267 24 178 89 350 311 350 338 332 319 316 328 334 344 12 1 345 310 299
118 118 120 121 122 133 147 158 149 142 152 198 137 18 199 176 212 211 195 163 104 117 145 183 171 190 213 168 233 224 235 286 268 271 242 48 46 48 37 15 3 337 334 331 326 334 331 346 346 343 347 325 321 323
112 112 111 114 115 122 137 144 141 130 258 159 171 190 212 264 177 70 83 96 91 76 155 193 271 229 185 256 234 235 250 235 226 233 59 50 35 33 25 13 8 354 345 337 334 334 324 334 331 322 325 319 346 15
87 85 98 109 116 119 127 153 147 94 189 223 234 218 60 214 129 121 177 129 164 227 148 268 264 229 211 224 216 219 217 201 41 40 67 50 38 28 20 18 9 2 355 346 342 345 324 323 309 315 295 65 258 291
71 115 94 99 110 120 121 117 158 215 258 227 214 246 200 337 71 108 164 83 126 253 234 235 224 217 262 242 232 245 256 333 33 34 26 25 13 3 7 9 11 4 345 342 332 324 316 306 308 322 319 271 257 247
89 78 81 104 104 73 79 108 164 207 216 220 224 175 189 210 254 237 231 224 241 237 256 271 311 257 257 253 250 250 264 338 9 9 351 347 349 352 338 340 343 335 333 330 317 317 308 328 321 321 309 285 286 242
66 58 73 94 115 112 127 131 157 234 229 197 224 230 229 250 252 259 259 252 260 258 294 302 258 247 248 267 288 299 318 350 332 321 308 314 318 315 316 308 301 305 307 310 308 306 304 314 298 305 296 283 247 235
50 40 67 75 94 89 121 109 99 285 268 31 267 250 250 260 267 256 246 241 240 228 219 234 254 262 279 286 295 315 304 309 312 307 309 308 302 317 307 307 311 305 301 297 296 298 291 280 274 259 258 297 51 150
34 12 48 62 71 63 102 31 185 298 307 277 292 251 257 250 258 259 248 243 238 238 246 238 244 259 272 282 289 297 300 309 310 302 300 307 304 292 300 305 304 298 296 312 310 303 302 287 212 207 256 238 215 175
357 44 50 29 52 33 34 74 328 327 288 285 295 273 263 262 265 249 249 247 240 241 246 253 260 267 275 273 273 279 298 288 293 292 288 282 290 291 289 294 305 310 305 304 311 318 285 250 268 271 182 150 129 142
15 27 24 32 46 28 305 332 305 310 295 315 334 292 259 262 287 295 259 245 249 293 293 265 254 258 270 284 300 299 293 293 291 298 285 282 280 293 300 343 328 321 316 321 323 315 261 216 205 178 185 167 159 121
12 35 6 6 302 281 36 3 311 305 304 297 281 286 301 289 266 248 265 35 23 18 360 11 8 347 319 303 285 291 292 292 297 296 299 323 329 321 305 311 309 302 306 306 302 293 269 232 202 174 150 135 123 127
358 41 64 307 278 12 331 254 230 250 253 238 243 268 317 351 284 297 10 20 6 4 345 333 321 315 307 299 302 304 321 325 327 304 304 321 290 255 303 335 359 346 337 306 281 224 160 155 147 138 127 116 106 104
11 95 194 1 46 349 339 305 10 357 313 293 276 342 343 310 307 54 19 358 10 7 356 349 339 332 322 305 300 307 303 312 295 300 356 301 172 158 109 94 86 76 78 91 96 97 103 104 111 119 133 109 102 99
340 40 8 339 323 297 271 287 299 293 293 295 351 340 8 2 25 2 1 1 0 353 2 14 34 44 44 36 33 44 55 86 103 97 97 101 107 113 116 102 86 73 54 54 71 90 103 106 99 93 85 81 68 58
285 301 291 328 340 328 314 300 279 272 304 317 338 6 19 5 4 345 5 63 31 25 26 33 48 61 67 70 68 60 50 56 58 63 63 64 68 62 66 66 83 80 75 70 63 55 61 94 106 117 119 126 135 142
254 240 218 256 232 240 226 236 271 234 235 280 332 355 111 313 312 224 266 324 333 313 308 322 358 12 29 32 33 45 50 53 52 49 46 46 48 61 55 53 48 60 60 56 78 86 82 90 101 79 74 78 90 98
248 201 217 229 214 220 230 199 233 238 236 188 195 189 202 205 219 135 92 13 15 21 25 18 20 14 9 25 54 48 34 15 359 13 29 44 52 61 55 69 73 65 62 80 79 77 91 93 88 89 113 100 89 70
189 192 234 230 210 210 187 177 155 124 131 192 196 200 174 150 125 164 305 14 34 23 19 25 26 26 28 26 26 32 40 30 32 32 42 41 48 49 47 46 48 49 61 78 75 82 86 101 92 89 81 71 62 55
234 246 288 51 81 146 162 179 190 197 197 185 200 201 196 210 186 89 67 40 37 24 26 25 30 24 26 34 38 40 47 33 26 22 77 65 54 42 24 24 37 60 71 78 83 83 86 89 89 77 62 46 39 31
349 19 9 353 354 1 352 239 192 87 184 128 44 66 110 50 75 81 49 24 30 29 32 26 30 40 35 36 29 15 23 12 28 29 27 43 89 83 63 54 44 48 61 66 68 69 68 68 59 50 35 22 12 5
Wind_Speed_850mb
59 60 60 68 79 79 74 76 68 60 54 48 43 39 36 32 31 32 14 22 22 28 42 26 18 17 24 15 17 14 6 10 13 19 23 24 25 28 28 28 25 18 14 9 17 19 22 29 36 17 12 18 25 24
57 60 63 63 74 72 80 75 66 58 51 47 43 39 35 32 31 30 10 15 18 24 29 18 25 23 15 11 16 11 8 10 17 9 18 21 23 21 24 25 22 23 9 11 14 22 24 18 24 18 21 15 23 30
58 59 64 62 75 73 84 74 63 56 50 46 41 38 34 32 31 35 18 4 10 22 39 44 41 29 30 30 12 8 6 13 4 10 14 9 13 14 19 15 24 13 45 18 12 20 13 23 24 5 14 11 19 26
54 59 65 61 71 67 84 68 60 53 48 44 39 35 33 31 31 36 21 6 8 14 14 16 21 25 16 23 26 26 17 16 16 17 20 12 16 22 21 24 25 10 23 37 17 15 5 63 30 23 16 21 25 28
48 60 63 69 74 65 75 64 57 51 46 40 35 32 30 30 30 31 25 10 11 9 13 11 8 20 21 19 24 25 22 19 21 19 17 16 31 26 30 28 25 36 20 19 14 24 21 19 7 14 15 27 33 40
46 53 68 66 79 77 69 60 55 49 42 36 31 29 27 27 26 21 10 13 10 9 11 7 4 16 20 19 20 23 23 20 20 17 24 33 43 27 14 24 36 47 51 49 35 31 31 14 19 27 35 39 35 38
42 63 88 85 78 69 63 56 50 44 38 33 29 26 25 27 31 15 1 17 19 14 7 10 11 23 22 21 22 23 24 26 23 31 40 40 39 35 21 26 40 59 56 56 53 52 44 40 40 40 40 45 50 41
75 67 57 70 63 61 57 51 44 38 32 28 25 23 23 25 18 13 9 2 15 9 9 7 8 12 23 23 23 26 26 26 18 27 23 26 39 40 20 31 50 52 49 53 54 52 55 57 54 52 52 49 57 37
65 67 80 67 61 55 50 44 37 33 29 27 27 27 28 20 10 13 10 7 24 8 8 10 13 10 13 24 27 22 18 13 29 23 35 21 20 16 19 48 60 57 54 50 49 49 46 46 48 48 46 47 39 36
87 85 68 59 52 47 41 37 34 33 32 36 42 8 13 13 12 17 3 8 9 11 11 12 26 13 8 20 18 10 16 13 13 20 30 22 25 45 48 58 54 51 50 43 43 41 44 46 48 46 44 42 36 36
68 63 56 48 43 38 36 36 37 38 45 24 11 7 15 22 21 7 10 13 16 10 15 23 31 13 10 8 7 15 8 8 16 21 22 18 20 34 61 63 54 52 49 47 49 51 52 53 48 46 40 36 28 18
56 51 47 43 39 37 37 39 43 44 17 10 19 23 24 7 11 10 10 9 10 10 15 21 21 23 6 5 8 9 6 6 10 13 10 27 22 31 27 14 5 16 12 18 22 25 28 29 30 26 7 9 13 14
47 44 40 37 35 34 37 48 41 27 26 23 10 12 10 6 4 11 14 10 8 6 14 13 11 9 7 3 10 7 7 9 20 10 21 15 5 6 6 6 5 12 12 9 19 23 23 22 15 13 11 10 13 13
46 42 37 33 29 29 35 46 34 43 22 11 9 5 7 10 11 11 16 12 18 15 16 19 17 13 14 11 11 9 9 9 9 13 18 17 30 27 26 24 19 20 21 23 22 25 23 27 19 16 10 12 11 8
45 40 35 31 28 28 33 47 42 17 1 5 7 6 11 3 11 19 20 20 12 9 12 6 9 8 12 6 7 8 7 9 9 9 7 25 29 31 27 25 23 21 24 23 23 24 26 23 18 16 11 11 7 5
36 28 30 27 28 30 33 31 16 4 1 3 5 5 7 7 14 4 5 18 5 6 3 7 6 7 12 7 10 11 8 7 14 24 25 24 23 23 23 24 28 29 29 29 25 24 26 25 19 14 16 0 1 4
27 14 21 24 24 27 28 18 9 4 3 5 10 8 3 4 9 12 12 12 9 8 9 9 8 13 7 10 24 9 18 8 29 36 32 24 25 21 22 25 26 27 29 30 25 22 22 25 25 22 7 4 5 10
21 18 16 15 18 14 7 5 4 5 8 10 8 13 9 4 4 5 4 7 11 10 16 12 12 14 13 9 16 4 18 19 21 24 24 30 25 24 20 21 24 27 34 33 30 29 22 21 23 11 8 27 18 17
14 16 17 17 20 15 4 3 2 5 10 3 9 5 7 9 10 12 14 14 13 11 7 9 9 13 18 33 34 45 38 26 35 40 31 27 29 31 29 28 31 33 34 39 39 37 28 17 16 10 10 10 6 9
23 24 20 23 15 5 2 4 2 3 7 9 5 9 10 13 15 17 19 21 25 23 18 9 22 33 30 30 36 38 42 42 38 34 42 36 32 39 35 30 37 37 41 46 37 40 30 25 12 6 3 2 1 1
15 11 21 16 7 6 1 2 2 1 6 8 9 7 14 14 19 25 27 27 31 37 36 40 41 42 42 41 40 43 44 47 42 40 46 46 41 41 37 39 35 39 43 45 43 40 35 21 10 6 9 13 13 16
13 14 11 12 7 6 3 2 6 9 7 11 16 16 16 18 21 23 21 31 34 37 40 43 46 47 42 38 41 35 44 45 51 51 52 51 48 49 41 34 30 34 38 34 30 34 18 27 22 12 6 12 15 15
18 17 8 9 6 6 4 4 4 6 6 9 10 8 8 7 11 12 6 20 34 25 32 32 34 37 32 34 35 33 38 46 49 49 54 49 47 36 29 16 17 21 25 24 27 30 17 15 16 24 24 29 18 23
20 7 6 6 0 5 5 4 4 5 8 6 5 8 10 5 11 6 12 11 33 40 27 24 34 28 30 32 32 33 37 39 39 32 24 16 19 19 29 30 29 23 23 23 24 20 18 13 17 18 26 37 34 29
4 6 2 4 4 3 3 4 5 3 6 7 8 10 8 11 6 5 9 16 33 31 34 31 25 26 29 34 29 25 25 22 28 24 24 21 14 14 10 9 8 9 8 12 9 5 11 21 31 31 34 47 39 32
3 3 1 9 5 3 5 7 8 9 10 5 5 9 8 6 4 8 8 23 23 34 37 35 29 25 18 20 25 30 33 25 17 12 8 3 10 6 14 20 22 22 15 14 14 18 20 18 19 19 21 15 17 18
4 5 5 6 8 6 7 7 13 9 5 6 9 11 7 6 6 6 14 23 26 23 23 20 18 19 21 23 20 15 12 8 12 29 30 23 21 19 21 24 22 17 10 11 13 14 15 19 23 24 25 25 22 19
3 5 4 7 7 5 4 6 3 3 5 8 10 6 4 3 3 7 3 12 19 35 38 35 25 22 24 27 23 21 22 22 19 17 17 20 17 18 20 18 16 22 24 21 18 15 8 9 14 13 14 13 13 13
6 6 5 6 6 6 9 7 4 5 6 3 4 2 2 1 6 7 11 15 22 21 18 18 24 29 33 32 25 27 25 25 30 31 27 22 20 12 26 28 28 22 21 17 15 12 12 13 12 17 18 16 13 10
7 12 7 7 7 8 9 17 8 7 6 10 5 6 5 6 7 5 11 12 16 15 12 14 16 14 14 6 12 12 16 13 12 15 16 17 17 9 7 6 7 9 9 10 13 19 19 15 15 11 8 6 5 5
6 9 8 12 11 14 19 19 13 9 7 8 17 6 6 7 8 5 4 8 10 12 14 16 17 18 16 16 14 13 14 15 18 16 16 12 12 10 9 8 6 5 4 4 5 6 7 8 7 7 8 8 7 7
7 12 20 6 8 13 23 22 18 15 22 16 16 13 11 9 5 10 9 8 8 9 12 13 13 15 15 13 13 14 12 12 13 10 9 10 9 10 11 8 8 7 7 6 7 7 7 7 6 6 6 8 7 7
7 23 21 17 14 15 16 4 7 2 8 16 14 4 3 8 10 6 6 11 13 11 9 10 8 9 11 12 12 8 7 18 20 32 23 12 8 12 12 8 8 7 8 7 8 8 8 8 7 8 7 7 7 7
Wind_Direction_850mb
222 223 224 220 226 229 224 207 209 214 218 224 221 218 219 216 218 212 211 237 222 259 273 304 298 304 323 300 269 11 233 197 261 234 247 247 255 264 269 255 268 182 149 179 240 313 245 350 346 2 328 323 325 336
217 215 217 219 217 229 215 199 204 207 213 216 213 211 213 211 209 204 225 261 235 247 267 308 288 263 275 303 328 300 337 308 6 281 238 261 263 268 263 271 234 246 281 169 152 217 201 190 203 252 242 350 332 334
212 209 216 214 223 220 207 195 198 203 208 209 209 207 206 207 203 196 211 207 261 264 282 261 256 277 246 243 258 283 32 358 50 352 320 301 287 309 289 289 283 321 17 298 290 307 297 252 301 103 63 22 340 327
211 208 213 210 214 220 203 187 195 197 200 203 205 203 202 202 201 194 189 282 236 286 272 247 190 219 231 228 234 242 261 299 310 304 292 284 292 305 292 303 301 264 94 238 280 313 7 288 51 46 21 350 332 318
214 205 213 211 207 220 180 184 189 190 193 197 199 199 197 196 198 197 196 238 237 258 320 321 232 233 211 218 223 231 243 261 274 280 258 261 275 288 288 292 285 298 299 316 315 306 314 309 70 24 327 302 306 294
208 212 195 192 207 202 174 180 181 183 186 189 191 192 193 189 185 168 216 225 220 239 289 255 193 185 204 215 220 223 228 236 236 254 255 260 275 299 272 267 278 283 286 301 324 330 331 323 295 302 301 308 314 317
205 178 181 187 171 164 169 172 176 177 178 179 180 181 182 179 169 210 298 183 206 166 242 259 235 191 203 208 220 222 221 230 236 251 241 259 268 269 264 258 275 284 293 306 313 320 316 304 299 295 296 298 295 288
188 176 177 157 154 162 164 168 169 170 170 168 166 165 166 168 187 206 230 165 164 173 233 265 256 185 185 208 223 210 219 217 230 240 253 247 246 245 255 261 267 269 277 284 290 291 291 292 292 290 293 293 288 288
166 166 142 150 158 160 162 163 164 163 158 152 145 138 130 142 176 186 259 197 171 193 276 226 249 215 172 228 223 177 215 238 237 235 236 248 243 237 243 241 251 262 266 274 276 282 281 282 285 285 284 285 299 315
133 132 143 151 155 156 158 159 157 154 147 141 134 129 154 160 148 130 103 157 192 214 239 259 254 279 208 214 212 204 199 229 253 222 235 233 245 257 261 264 266 271 276 278 281 286 286 286 289 294 292 297 302 292
131 137 144 149 152 154 154 154 153 148 143 140 175 99 130 149 140 197 181 204 189 211 212 232 257 294 207 285 267 211 256 229 243 240 244 238 239 240 243 245 254 255 260 266 268 272 272 270 270 273 277 275 284 326
135 140 143 145 146 148 151 153 148 138 170 146 102 116 132 181 203 197 188 219 202 220 164 210 211 228 347 15 274 292 235 237 259 288 250 227 245 268 288 275 321 321 289 280 281 280 280 280 276 273 287 359 337 316
128 130 132 134 138 144 149 149 143 137 146 129 134 152 183 159 132 208 191 186 204 185 141 179 183 207 202 281 271 285 261 258 295 275 254 267 24 178 89 350 311 350 338 332 319 316 328 334 344 12 1 345 310 299
118 118 120 121 122 133 147 158 149 142 152 198 137 18 199 176 212 211 195 163 104 117 145 183 171 190 213 168 233 224 235 286 268 271 242 48 46 48 37 15 3 337 334 331 326 334 331 346 346 343 347 325 321 323
112 112 111 114 115 122 137 144 141 130 258 159 171 190 212 264 177 70 83 96 91 76 155 193 271 229 185 256 234 235 250 235 226 233 59 50 35 33 25 13 8 354 345 337 334 334 324 334 331 322 325 319 346 15
87 85 98 109 116 119 127 153 147 94 189 223 234 218 60 214 129 121 177 129 164 227 148 268 264 229 211 224 216 219 217 201 41 40 67 50 38 28 20 18 9 2 355 346 342 345 324 323 309 315 295 65 258 291
71 115 94 99 110 120 121 117 158 215 258 227 214 246 200 337 71 108 164 83 126 253 234 235 224 217 262 242 232 245 256 333 33 34 26 25 13 3 7 9 11 4 345 342 332 324 316 306 308 322 319 271 257 247
89 78 81 104 104 73 79 108 164 207 216 220 224 175 189 210 254 237 231 224 241 237 256 271 311 257 257 253 250 250 264 338 9 9 351 347 349 352 338 340 343 335 333 330 317 317 308 328 321 321 309 285 286 242
66 58 73 94 115 112 127 131 157 234 229 197 224 230 229 250 252 259 259 252 260 258 294 302 258 247 248 267 288 299 318 350 332 321 308 314 318 315 316 308 301 305 307 310 308 306 304 314 298 305 296 283 247 235
50 40 67 75 94 89 121 109 99 285 268 31 267 250 250 260 267 256 246 241 240 228 219 234 254 262 279 286 295 315 304 309 312 307 309 308 302 317 307 307 311 305 301 297 296 298 291 280 274 259 258 297 51 150
34 12 48 62 71 63 102 31 185 298 307 277 292 251 257 250 258 259 248 243 238 238 246 238 244 259 272 282 289 297 300 309 310 302 300 307 304 292 300 305 304 298 296 312 310 303 302 287 212 207 256 238 215 175
357 44 50 29 52 33 34 74 328 327 288 285 295 273 263 262 265 249 249 247 240 241 246 253 260 267 275 273 273 279 298 288 293 292 288 282 290 291 289 294 305 310 305 304 311 318 285 250 268 271 182 150 129 142
15 27 24 32 46 28 305 332 305 310 295 315 334 292 259 262 287 295 259 245 249 293 293 265 254 258 270 284 300 299 293 293 291 298 285 282 280 293 300 343 328 321 316 321 323 315 261 216 205 178 185 167 159 121
12 35 6 6 302 281 36 3 311 305 304 297 281 286 301 289 266 248 265 35 23 18 360 11 8 347 319 303 285 291 292 292 297 296 299 323 329 321 305 311 309 302 306 306 302 293 269 232 202 174 150 135 123 127
358 41 64 307 278 12 331 254 230 250 253 238 243 268 317 351 284 297 10 20 6 4 345 333 321 315 307 299 302 304 321 325 327 304 304 321 290 255 303 335 359 346 337 306 281 224 160 155 147 138 127 116 106 104
11 95 194 1 46 349 339 305 10 357 313 293 276 342 343 310 307 54 19 358 10 7 356 349 339 332 322 305 300 307 303 312 295 300 356 301 172 158 109 94 86 76 78 91 96 97 103 104 111 119 133 109 102 99
340 40 8 339 323 297 271 287 299 293 293 295 351 340 8 2 25 2 1 1 0 353 2 14 34 44 44 36 33 44 55 86 103 97 97 101 107 113 116 102 86 73 54 54 71 90 103 106 99 93 85 81 68 58
285 301 291 328 340 328 314 300 279 272 304 317 338 6 19 5 4 345 5 63 31 25 26 33 48 61 67 70 68 60 50 56 58 63 63 64 68 62 66 66 83 80 75 70 63 55 61 94 106 117 119 126 135 142
254 240 218 256 232 240 226 236 271 234 235 280 332 355 111 313 312 224 266 324 333 313 308 322 358 12 29 32 33 45 50 53 52 49 46 46 48 61 55 53 48 60 60 56 78 86 82 90 101 79 74 78 90 98
248 201 217 229 214 220 230 199 233 238 236 188 195 189 202 205 219 135 92 13 15 21 25 18 20 14 9 25 54 48 34 15 359 13 29 44 52 61 55 69 73 65 62 80 79 77 91 93 88 89 113 100 89 70
189 192 234 230 210 210 187 177 155 124 131 192 196 200 174 150 125 164 305 14 34 23 19 25 26 26 28 26 26 32 40 30 32 32 42 41 48 49 47 46 48 49 61 78 75 82 86 101 92 89 81 71 62 55
234 246 288 51 81 146 162 179 190 197 197 185 200 201 196 210 186 89 67 40 37 24 26 25 30 24 26 34 38 40 47 33 26 22 77 65 54 42 24 24 37 60 71 78 83 83 86 89 89 77 62 46 39 31
349 19 9 353 354 1 352 239 192 87 184 128 44 66 110 50 75 81 49 24 30 29 32 26 30 40 35 36 29 15 23 12 28 29 27 43 89 83 63 54 44 48 61 66 68 69 68 68 59 50 35 22 12 5